カタログに戻る

DMSP 5D-2 F13 DEB

運用中SSO
NORAD 40497·DEBRIS·🇺🇸 United States

打ち上げ Mar 24, 1995 から Vandenberg Space Force Base

Loading…

次のパス (今後24時間)

TLE

経年Source: Space-Track

元期: Sep 8, 2026, 08:28 UTC

1 40497U 95015CL  26251.35289773  .00003571  00000-0  10792-2 0  9991
2 40497  98.6750 294.6682 0005866 113.7772 246.4033 14.43021025597398

AllMySatでDMSP 5D-2 F13 DEBをリアルタイム追跡

Download on the App Store